Miscellaneous Local Product
Issued by NWS North Platte, NE

Home | Current Version | Previous Version | Text Only | Print | Product List | Glossary On
Versions: 1 2 3 4 5 6 7 8 9 10 11 12 13 14 15 16 17 18 19 20 21 22 23 24 25 26 27 28 29 30 31 32 33 34 35 36 37 38 39 40 41 42 43 44 45 46 47 48 49 50
000
AXUS43 KLBF 281010
MISLBF


WESTERN AND NORTH CENTRAL NEBRASKA HOURLY WEATHER ROUNDUP
NATIONAL WEATHER SERVICE NORTH PLATTE NE
400 AM CST WED JAN 28 2015

***STATIONS NOT REPORTING VARIABLES SUCH AS SKY/WEATHER OR
PRESSURE ARE PROVIDED BY THE NEBRASKA DEPARTMENT OF
ROADS...RAWS...AND APRS NETWORKS...AND ARE NOT UNDER
NATIONAL WEATHER SERVICE QUALITY CONTROL***

...OBSERVATIONS IN AND NEAR THE EASTERN PANHANDLE OF NEBRASKA...

CITY           SKY/WX    TMP DP  RH WIND       PRES   REMARKS
PINE RIDGE     MOCLDY    44  28  53 NW9       29.84F
CHADRON        MOCLDY    39  30  70 S6        29.86F WCI  35
ALLIANCE       CLOUDY    39  30  70 W6        29.89F WCI  35
SIDNEY         MOCLDY    39  27  62 NW8       29.95F WCI  33
WHITECLAY        N/A     46  29  50 W8          N/A
CRESCENT LAKE    N/A     47  28  48 W7          N/A
LISCO            N/A     36  27  71 W8          N/A  WCI  29
LEWELLEN         N/A     34  30  85 W5          N/A  WCI  30
$$

...OBSERVATIONS IN NORTH CENTRAL NEBRASKA...

CITY           SKY/WX    TMP DP  RH WIND       PRES   REMARKS
VALENTINE      CLEAR     35  29  78 SW9       29.80F WCI  28
THEDFORD       CLEAR     37  30  77 W6        29.84F WCI  32
AINSWORTH      CLEAR     39  29  67 SW8       29.80F WCI  34
O`NEILL        CLEAR     33  32  93 S6        29.81S WCI  28
ORD            PTCLDY    26  24  92 S5        29.82F WCI  20
BROKEN BOW     CLEAR     34  29  82 N3        29.83F
BROWNLEE         N/A     50  29  45 W8          N/A
VALENTINE NWR    N/A     43  27  53 W6G13       N/A
SPRINGVIEW       N/A     27  25  90 CALM        N/A
HALSEY           N/A     43  28  55 W6          N/A
BREWSTER         N/A     34  32  90 CALM        N/A
ROSE             N/A     37  34  87 S5          N/A  WCI  34
NEWPORT          N/A     37  32  84 SW5         N/A  WCI  33
SARGENT          N/A     28  26  91 CALM        N/A
COMSTOCK         N/A     35  32  90 CALM        N/A
CHAMBERS         N/A     35  29  80 S3          N/A
EWING            N/A     35  31  84 S5          N/A  WCI  31
$$

...OBSERVATIONS IN SOUTHWEST NEBRASKA AND FAR NORTHEAST COLORADO...

CITY           SKY/WX    TMP DP  RH WIND       PRES   REMARKS
WRAY           FAIR      40  30  67 NW8       29.90S WCI  35
HOLYOKE        FAIR      45  30  57 NW13      29.91S
IMPERIAL       PTCLDY    42  29  59 N18       29.88S
OGALLALA       PTCLDY    40  31  68 CALM      29.90S
NORTH PLATTE   CLEAR     28  25  88 NW7       29.87S WCI  21
MCCOOK         PTCLDY    32  27  81 NW3       29.83F
LEXINGTON      CLEAR     30  27  88 W8        29.83F WCI  22
BRADY            N/A     30  26  86 CALM        N/A
GOTHENBURG       N/A     30  24  77 W6          N/A  WCI  24
CALLAWAY         N/A     43  33  67 NW7         N/A
$$

...NORTH PLATTE AREA...

CITY           SKY/WX    TMP DP  RH WIND       PRES   REMARKS
AIRPORT        CLEAR     28  25  88 NW7       29.87S WCI  21
DOWNTOWN         N/A     34  28  77 CALM        N/A
$$

...SOME WEATHER OBSERVATIONS FROM AROUND THE REGION...

CITY           SKY/WX    TMP DP  RH WIND       PRES   REMARKS
DENVER         MOCLDY    44  24  45 SW12      30.00S
LARAMIE        MOCLDY    37  31  78 SW15      30.08F WCI  28
CHEYENNE       CLOUDY    46  29  51 W16G26    30.02R
SCOTTSBLUFF      N/A    N/A N/A N/A MISG      29.93F
RAPID CITY     MOCLDY    43  27  53 N8        29.77S
PIERRE         MOCLDY    31  30  96 CALM      29.69F
WINNER         FAIR      55  31  39 SW13      29.73F
SIOUX FALLS    PTCLDY    34  30  85 SE10      29.86F WCI  26
OMAHA          PTCLDY    36  30  79 SE13      29.93F WCI  27
GRAND ISLAND   CLEAR     27  24  89 N3        29.85F
KANSAS CITY    CLEAR     40  30  67 SE14      29.96F WCI  32
WICHITA        CLEAR     43  34  70 S6        29.93F
HAYS           CLEAR     43  28  56 S6        29.86F
LIBERAL        CLEAR     39  30  70 S10       29.93F WCI  32
GOODLAND       PTCLDY    37  30  75 NW13      29.86F WCI  29
$$



USA.gov is the U.S. government's official web portal to all federal, state and local government web resources and services.